Flag for U.S.A. Weather past 2 weeks in Sioux Falls, South Dakota, U.S.A.

Now
72 °F

Passing clouds.


Feels Like: 76 °F
Forecast: 50 / 76 °F
Wind: 16 mph from Southeast

Location: Foss Field


UV Index: 3 (Moderate)

Visibility: 10 mi


Pressure: 29.96 "Hg

Humidity: 28%

Dew point: 37 °F

Location of Sioux FallsLocation

Historic Weather in Sioux Falls

°F

Sioux Falls temperature yesterday

Maximum temperature yesterday: 70 °F (at 5:56 PM)
Minimum temperature yesterday: 53 °F (at 6:56 AM)
Average temperature yesterday: 61 °F

Past Weeks' High & Low Weather Summary

 TemperatureHumidityPressure
High81 °F (Apr 9, 5:56 PM)96% (Apr 16, 3:56 PM)30.39 "Hg (Apr 16, 3:56 PM)
Low12 °F (Apr 15, 6:56 AM)14% (Apr 9, 5:56 PM)29.54 "Hg (Apr 9, 8:56 PM)
Average47 °F54%29.95 "Hg
* Reported Apr 5 10:56 AM — Apr 20 10:56 AM, Sioux Falls, Weather by CustomWeather, © 2014

Note: Actual official high and low records may vary slightly from our data, if they occured in-between our weather recording intervals... More about our weather records

Advertising

Historic Weather Conditions — Data for Previous 24 hours

 ConditionsComfort  
Time TempWeatherWind HumidityBarometerVisibility
10:56 AM
Apr 20
70 °FPassing clouds.17 mph23%29.98 "Hg10 mi
9:56 AM66 °FPassing clouds.16 mph28%29.98 "Hg10 mi
8:56 AM58 °FPassing clouds.7 mph51%30.00 "Hg10 mi
7:56 AM50 °FPassing clouds.5 mph68%30.00 "Hg10 mi
6:56 AM44 °FPassing clouds.5 mph76%30.00 "Hg10 mi
5:56 AM51 °FMostly cloudy.7 mph66%29.99 "Hg10 mi
4:56 AM52 °FOvercast.6 mph64%29.99 "Hg10 mi
3:56 AM52 °FOvercast.5 mph61%29.99 "Hg10 mi
2:56 AM53 °FOvercast.3 mph64%29.99 "Hg10 mi
1:56 AM53 °FMostly cloudy.5 mph64%30.00 "Hg10 mi
12:56 AM55 °FOvercast.No wind55%30.00 "Hg10 mi
11:56 PM
Apr 19
55 °FMostly cloudy.5 mph59%30.01 "Hg10 mi
10:56 PM57 °FOvercast.3 mph53%30.01 "Hg10 mi
9:56 PM59 °FOvercast.5 mph46%30.02 "Hg10 mi
8:56 PM60 °FMore clouds than sun.5 mph41%30.00 "Hg10 mi
7:56 PM62 °FMostly cloudy.6 mph39%29.98 "Hg10 mi
6:56 PM66 °FMostly cloudy.7 mph28%29.98 "Hg10 mi
5:56 PM70 °FMostly cloudy.6 mph22%29.98 "Hg10 mi
4:56 PM69 °FMostly cloudy.6 mph29%29.98 "Hg10 mi
3:56 PM69 °FMostly cloudy.12 mph36%29.98 "Hg10 mi
2:56 PM67 °FMostly cloudy.8 mph41%29.98 "Hg10 mi
1:56 PM68 °FPartly sunny.13 mph40%29.98 "Hg10 mi
12:56 PM68 °FPartly sunny.16 mph42%29.97 "Hg10 mi
Weather by CustomWeather, © 2014

See weather overview